Atlantic City, NJ (08401)

3:38 PM EST on February 10, 2016 (GMT -0500)
APRSWXNET | | Change Station
CLOSE
Current Station
Personal Weather Station
Location: Absecon, NJ
Elevation: 9 ft
Nearby Weather Stations

Elev 9 ft 39.40 °N, 74.47 °W | Updated 27 minutes ago

Overcast
Overcast
36 °F
Feels Like 36 °F
N
0
Wind Variable Wind from West
Gusts 0.0 mph

Today
High -- | Low -- °F
--% Chance of Precip.
Yesterday
High -- | Low -- °F
Precip. -- in
Pressure 29.71 in
Visibility 10.0 miles
Clouds Overcast 3500 ft
Windchill 36 °F
Dew Point 25 °F
Humidity 64%
Rainfall in
Snow Depth Not available.
6:56 AM 5:28 PM
Waxing Crescent, 7% visible
METAR KACY 101954Z 28015G22KT 10SM OVC035 01/M07 A2971 RMK AO2 SLP061 T00111067
Pressure 29.71 in
Visibility 10.0 miles
Clouds Overcast 3500 ft
Windchill 36 °F
Dew Point 25 °F
Humidity 64%
Rainfall in
Snow Depth Not available.
6:56 AM 5:28 PM
Waxing Crescent, 7% visible
METAR KACY 101954Z 28015G22KT 10SM OVC035 01/M07 A2971 RMK AO2 SLP061 T00111067

10-Day Weather Forecast

Almanac

Astronomy

Feb. 10, 2016 Rise Set
Actual Time
Civil Twilight
Nautical Twilight
Astronomical Twilight
Moon
Length of Visible Light
Length of Day
Tomorrow will be .
, % of the Moon is Illuminated

Today's Extremes

State Highs State Lows

Community

WunderPhotos

Upload Photos

1,891,943 photos uploaded!

WunderBlog® & News

Nearby

Air Quality

  Air Quality AQ Index Pollutant
Not available.

Snow Depth

Station Depth Elevation

Earthquake Activity

City Distance Mag. Time & Date
Minimum magnitude displayed is 2.5.

Coastal Water Temperatures

Place Temperature

Stations

Nearby Weather Stations

Station Location Temp. Windchill Dew Point Humidity Wind Precip. Elev Updated Type
                   

Watches & Warnings

There are currently no watches in effect.